| time (UTC) | temp C | wind direction | speed KPH | gust KPH | rain 1hr cm | rain 24hr cm | rain mn cm | humidity % | barometer mb |
| 20260505200051 | 26 | 219 | 8.0 | 22.5 | 0.00 | 0.00 | 0.00 | 48 | 1014.1 |
| 20260505194608 | 27 | 229 | 9.7 | 22.5 | 0.00 | 0.00 | 0.00 | 48 | 1014.3 |
| 20260505194502 | 27 | 226 | 9.7 | 22.5 | 0.00 | 0.00 | 0.00 | 47 | 1014.4 |
| 20260505193023 | 26 | 201 | 6.4 | 17.7 | 0.00 | 0.00 | 0.00 | 48 | 1014.6 |
| 20260505191536 | 27 | 219 | 11.3 | 22.5 | 0.00 | 0.00 | 0.00 | 47 | 1014.8 |
| 20260505184526 | 27 | 221 | 6.4 | 16.1 | 0.00 | 0.00 | 0.00 | 47 | 1015.2 |
| 20260505183047 | 27 | 173 | 8.0 | 19.3 | 0.00 | 0.00 | 0.00 | 49 | 1015.4 |
| 20260505181504 | 26 | 198 | 8.0 | 22.5 | 0.00 | 0.00 | 0.00 | 50 | 1015.5 |
| 20260505180018 | 26 | 153 | 6.4 | 14.5 | 0.00 | 0.00 | 0.00 | 49 | 1015.7 |
| 20260505174534 | 26 | 160 | 8.0 | 19.3 | 0.00 | 0.00 | 0.00 | 51 | 1015.7 |
| 20260505173052 | 26 | 162 | 11.3 | 20.9 | 0.00 | 0.00 | 0.00 | 51 | 1015.7 |
| 20260505171514 | 25 | 195 | 9.7 | 20.9 | 0.00 | 0.00 | 0.00 | 53 | 1016.0 |
| 20260505170036 | 25 | 191 | 8.0 | 16.1 | 0.00 | 0.00 | 0.00 | 53 | 1016.1 |
| 20260505164604 | 25 | 193 | 6.4 | 19.3 | 0.00 | 0.00 | 0.00 | 55 | 1016.2 |
| 20260505163016 | 25 | 204 | 3.2 | 16.1 | 0.00 | 0.00 | 0.00 | 55 | 1016.3 |
| 20260505161534 | 25 | 229 | 6.4 | 22.5 | 0.00 | 0.00 | 0.00 | 58 | 1016.3 |
| 20260505160105 | 25 | 225 | 4.8 | 12.9 | 0.00 | 0.00 | 0.00 | 62 | 1016.7 |
| 20260505153045 | 23 | 221 | 9.7 | 14.5 | 0.00 | 0.00 | 0.00 | 62 | 1016.9 |
| 20260505151608 | 22 | 233 | 4.8 | 17.7 | 0.00 | 0.00 | 0.00 | 63 | 1017.0 |
| 20260505124517 | 17 | 245 | 1.6 | 9.7 | 0.00 | 0.00 | 0.00 | 78 | 1016.9 |
| 20260505123043 | 16 | 198 | 4.8 | 11.3 | 0.00 | 0.00 | 0.00 | 79 | 1017.0 |
| 20260505121503 | 15 | 219 | 3.2 | 8.0 | 0.00 | 0.00 | 0.00 | 83 | 1017.0 |
| 20260505120038 | 13 | 251 | 1.6 | 6.4 | 0.00 | 0.00 | 0.00 | 84 | 1016.8 |
| 20260505114548 | 13 | 167 | 0.0 | 3.2 | 0.00 | 0.00 | 0.00 | 86 | 1016.7 |
| 20260505113017 | 12 | 140 | 0.0 | 3.2 | 0.00 | 0.00 | 0.00 | 88 | 1016.7 |
| 20260505111543 | 11 | 141 | 0.0 | 1.6 | 0.00 | 0.00 | 0.00 | 89 | 1016.6 |
| 20260505110109 | 11 | 173 | 0.0 | 0.0 | 0.00 | 0.00 | 0.00 | 90 | 1016.4 |
| 20260505101516 | 11 | 167 | 0.0 | 0.0 | 0.00 | 0.00 | 0.00 | 88 | 1015.9 |
| 20260505100029 | 11 | 141 | 0.0 | 0.0 | 0.00 | 0.00 | 0.00 | 87 | 1015.8 |
| 20260505094554 | 11 | 195 | 0.0 | 0.0 | 0.00 | 0.00 | 0.00 | 87 | 1015.7 |
| 20260505093009 | 12 | 227 | 0.0 | 0.0 | 0.00 | 0.00 | 0.00 | 85 | 1015.6 |
| 20260505091537 | 12 | 232 | 0.0 | 0.0 | 0.00 | 0.00 | 0.00 | 84 | 1015.6 |
| 20260505090049 | 12 | 214 | 0.0 | 3.2 | 0.00 | 0.00 | 0.00 | 84 | 1015.4 |
| 20260505084508 | 13 | 217 | 0.0 | 3.2 | 0.00 | 0.00 | 0.00 | 82 | 1015.4 |
| 20260505083025 | 13 | 200 | 0.0 | 4.8 | 0.00 | 0.00 | 0.00 | 82 | 1015.2 |
| 20260505081541 | 13 | 162 | 0.0 | 6.4 | 0.00 | 0.00 | 0.00 | 81 | 1015.1 |
| 20260505080106 | 13 | 150 | 1.6 | 6.4 | 0.00 | 0.00 | 0.00 | 80 | 1015.2 |
| 20260505080005 | 13 | 162 | 1.6 | 6.4 | 0.00 | 0.00 | 0.00 | 80 | 1015.0 |
| 20260505074523 | 13 | 210 | 4.8 | 8.0 | 0.00 | 0.00 | 0.00 | 79 | 1015.1 |
| 20260505073052 | 14 | 211 | 3.2 | 11.3 | 0.00 | 0.00 | 0.00 | 78 | 1015.0 |
| 20260505071503 | 14 | 198 | 6.4 | 11.3 | 0.00 | 0.00 | 0.00 | 77 | 1015.0 |
| 20260505070036 | 14 | 212 | 3.2 | 8.0 | 0.00 | 0.00 | 0.00 | 77 | 1014.9 |
| 20260505064541 | 15 | 210 | 3.2 | 11.3 | 0.00 | 0.00 | 0.00 | 76 | 1015.0 |
| 20260505063009 | 15 | 207 | 4.8 | 11.3 | 0.00 | 0.00 | 0.00 | 75 | 1014.9 |
| 20260505061532 | 15 | 221 | 3.2 | 12.9 | 0.00 | 0.00 | 0.00 | 74 | 1015.0 |
| 20260505060053 | 15 | 184 | 6.4 | 11.3 | 0.00 | 0.00 | 0.00 | 74 | 1015.1 |
| 20260505054502 | 15 | 188 | 3.2 | 12.9 | 0.00 | 0.00 | 0.00 | 73 | 1015.4 |
| 20260505053023 | 16 | 221 | 4.8 | 9.7 | 0.00 | 0.00 | 0.00 | 72 | 1015.4 |
| 20260505051537 | 16 | 218 | 4.8 | 11.3 | 0.00 | 0.00 | 0.00 | 72 | 1015.5 |
| 20260505041531 | 16 | 186 | 4.8 | 16.1 | 0.00 | 0.00 | 0.00 | 70 | 1015.5 |
| 20260505040049 | 17 | 162 | 4.8 | 17.7 | 0.00 | 0.00 | 0.00 | 70 | 1015.3 |
| 20260505034559 | 17 | 226 | 4.8 | 12.9 | 0.00 | 0.00 | 0.00 | 69 | 1015.3 |
| 20260505034513 | 17 | 211 | 4.8 | 12.9 | 0.00 | 0.00 | 0.00 | 70 | 1015.4 |
| 20260505033025 | 17 | 210 | 4.8 | 12.9 | 0.00 | 0.00 | 0.00 | 69 | 1015.3 |
| 20260505031605 | 17 | 200 | 6.4 | 12.9 | 0.00 | 0.00 | 0.00 | 68 | 1015.3 |
| 20260505030013 | 17 | 221 | 4.8 | 12.9 | 0.00 | 0.00 | 0.00 | 68 | 1015.3 |
| 20260505024554 | 17 | 205 | 4.8 | 14.5 | 0.00 | 0.00 | 0.00 | 67 | 1015.2 |
| 20260505023056 | 18 | 223 | 6.4 | 12.9 | 0.00 | 0.00 | 0.00 | 67 | 1015.0 |
| 20260505021535 | 18 | 210 | 6.4 | 20.9 | 0.00 | 0.00 | 0.00 | 66 | 1015.0 |
| 20260505020049 | 18 | 203 | 8.0 | 20.9 | 0.00 | 0.00 | 0.00 | 66 | 1014.8 |
| 20260505014532 | 19 | 191 | 8.0 | 17.7 | 0.00 | 0.00 | 0.00 | 65 | 1014.7 |
| 20260505013049 | 19 | 186 | 8.0 | 17.7 | 0.00 | 0.00 | 0.00 | 64 | 1014.5 |
| 20260505011515 | 20 | 211 | 4.8 | 11.3 | 0.00 | 0.00 | 0.00 | 58 | 1014.3 |
| 20260505010036 | 20 | 165 | 3.2 | 12.9 | 0.00 | 0.00 | 0.00 | 54 | 1013.9 |
| 20260505004511 | 20 | 221 | 3.2 | 8.0 | 0.00 | 0.00 | 0.00 | 51 | 1013.5 |
| 20260505003046 | 21 | 202 | 1.6 | 6.4 | 0.00 | 0.00 | 0.00 | 50 | 1013.3 |
| 20260505001600 | 21 | 214 | 3.2 | 9.7 | 0.00 | 0.00 | 0.00 | 48 | 1013.4 |
| 20260505000030 | 22 | 182 | 3.2 | 8.0 | 0.00 | 0.00 | 0.00 | 46 | 1013.3 |
| 20260504234550 | 23 | 229 | 3.2 | 9.7 | 0.00 | 0.00 | 0.00 | 44 | 1013.1 |
| 20260504233012 | 23 | 209 | 3.2 | 14.5 | 0.00 | 0.00 | 0.00 | 42 | 1012.8 |
| 20260504231538 | 24 | 213 | 4.8 | 11.3 | 0.00 | 0.00 | 0.00 | 41 | 1012.8 |
| 20260504230050 | 25 | 207 | 6.4 | 11.3 | 0.00 | 0.00 | 0.00 | 40 | 1012.8 |
| 20260504224509 | 25 | 218 | 8.0 | 17.7 | 0.00 | 0.00 | 0.00 | 39 | 1012.9 |
| 20260504223051 | 25 | 198 | 6.4 | 19.3 | 0.00 | 0.00 | 0.00 | 38 | 1012.9 |
| 20260504221556 | 26 | 149 | 8.0 | 16.1 | 0.00 | 0.00 | 0.00 | 37 | 1012.8 |
| 20260504220024 | 26 | 300 | 11.3 | 17.7 | 0.00 | 0.00 | 0.00 | 36 | 1012.8 |
| 20260504214547 | 26 | 321 | 6.4 | 20.9 | 0.00 | 0.00 | 0.00 | 37 | 1012.9 |
| 20260504213022 | 26 | 212 | 9.7 | 17.7 | 0.00 | 0.00 | 0.00 | 36 | 1012.9 |
| 20260504211538 | 26 | 176 | 4.8 | 20.9 | 0.00 | 0.00 | 0.00 | 38 | 1012.9 |
| 20260504210058 | 26 | 225 | 11.3 | 20.9 | 0.00 | 0.00 | 0.00 | 35 | 1013.0 |
| 20260504204533 | 26 | 214 | 6.4 | 17.7 | 0.00 | 0.00 | 0.00 | 37 | 1012.9 |
| 20260504203042 | 26 | 214 | 6.4 | 16.1 | 0.00 | 0.00 | 0.00 | 35 | 1013.3 |
| 20260504201600 | 26 | 167 | 6.4 | 20.9 | 0.00 | 0.00 | 0.00 | 38 | 1013.3 |